Location: Unspecified
(0.0000°N, 0.0000°E)
Time: 11:44:32
(UTC+00:00)

deb Delta 104 - Pass Details

Date: 06 March 2026
Orbit: 1430 x 1579 km, 102.3° (Epoch: 12 April)

Event Time Altitude Azimuth Distance (km) Brightness Sun altitude
Rises 03:13:21 0° 60° (ENE) 4,758 ? -44.2°
Reaches altitude 10° 03:18:50 10° 88° (E) 3,772 ? -42.9°
Maximum altitude 03:21:54 12° 108° (ESE) 3,592 ? -42.1°
Drops below altitude 10° 03:24:58 10° 129° (SE) 3,757 ? -41.3°
Sets 03:30:19 0° 156° (SSE) 4,718 ? -40.0°
